Location: Kershaw
(34.5481°N, 80.5823°W)
Time: 12:55:02
(UTC+00:00)

A-11 Canister half - Pass Details

Date: 08 October 2022
Orbit: 1524 x 1685 km, 47.3° (Epoch: 25 November)

Event Time Altitude Azimuth Distance (km) Brightness Sun altitude
Rises 23:33:23 0° 301° (WNW) 4,681 12.6 -8.4°
Reaches altitude 10° 23:36:35 10° 307° (NW) 3,708 11.9 -9.0°
Maximum altitude 23:45:35 49° 20° (NNE) 1,946 9.4 -10.9°
Enters shadow 23:53:25 15° 90° (E) 3,397 10.1 -12.5°
